Precipitable_Water
0.27 0.28 0.29 0.28 0.27 0.28 0.26 0.26 0.22 0.23 0.23 0.26 0.27 0.29 0.31 0.35 0.39 0.40 0.41 0.44 0.46 0.48 0.49 0.52 0.53 0.55 0.56 0.57 0.57 0.58 0.55 0.53 0.51 0.51 0.49 0.47 0.44 0.44 0.45 0.45 0.45 0.45 0.44 0.43
0.26 0.29 0.28 0.25 0.28 0.28 0.28 0.29 0.29 0.29 0.28 0.40 0.38 0.37 0.36 0.37 0.40 0.41 0.45 0.47 0.47 0.49 0.50 0.51 0.51 0.50 0.49 0.46 0.46 0.48 0.45 0.42 0.40 0.36 0.34 0.33 0.33 0.32 0.32 0.33 0.34 0.34 0.33 0.33
0.26 0.30 0.28 0.24 0.27 0.29 0.31 0.33 0.31 0.27 0.31 0.38 0.37 0.37 0.43 0.44 0.45 0.44 0.44 0.45 0.45 0.45 0.43 0.40 0.38 0.37 0.35 0.34 0.34 0.30 0.26 0.24 0.23 0.22 0.22 0.24 0.26 0.27 0.28 0.29 0.30 0.30 0.30 0.32
0.28 0.31 0.22 0.30 0.35 0.36 0.34 0.35 0.38 0.38 0.39 0.40 0.41 0.44 0.43 0.43 0.41 0.40 0.40 0.40 0.38 0.36 0.35 0.34 0.35 0.35 0.35 0.33 0.30 0.26 0.24 0.25 0.26 0.26 0.25 0.26 0.25 0.25 0.25 0.27 0.28 0.29 0.31 0.32
0.28 0.27 0.30 0.27 0.26 0.23 0.18 0.17 0.31 0.31 0.32 0.34 0.37 0.37 0.35 0.40 0.40 0.37 0.37 0.36 0.35 0.34 0.33 0.34 0.34 0.34 0.32 0.29 0.27 0.26 0.26 0.27 0.29 0.29 0.28 0.27 0.26 0.26 0.27 0.26 0.26 0.26 0.27 0.26
0.28 0.22 0.18 0.21 0.21 0.20 0.19 0.11 0.15 0.19 0.21 0.22 0.26 0.19 0.21 0.29 0.33 0.33 0.34 0.35 0.33 0.33 0.34 0.32 0.31 0.30 0.29 0.27 0.26 0.25 0.26 0.27 0.28 0.28 0.27 0.26 0.26 0.25 0.25 0.24 0.22 0.22 0.22 0.23
0.22 0.20 0.19 0.24 0.20 0.19 0.11 0.13 0.20 0.22 0.22 0.24 0.23 0.25 0.28 0.31 0.32 0.34 0.34 0.33 0.33 0.33 0.31 0.30 0.30 0.30 0.27 0.26 0.24 0.25 0.26 0.26 0.26 0.26 0.25 0.25 0.24 0.24 0.23 0.22 0.21 0.20 0.20 0.21
0.19 0.16 0.14 0.24 0.18 0.12 0.17 0.19 0.20 0.22 0.24 0.24 0.25 0.25 0.27 0.29 0.30 0.33 0.33 0.33 0.34 0.32 0.31 0.29 0.27 0.25 0.24 0.23 0.24 0.24 0.24 0.24 0.25 0.25 0.25 0.23 0.22 0.22 0.22 0.21 0.20 0.20 0.20 0.20
0.17 0.17 0.24 0.23 0.21 0.23 0.23 0.22 0.22 0.22 0.24 0.24 0.23 0.23 0.24 0.25 0.27 0.29 0.31 0.32 0.31 0.29 0.25 0.24 0.24 0.23 0.22 0.23 0.23 0.24 0.24 0.24 0.23 0.23 0.22 0.22 0.21 0.20 0.20 0.20 0.20 0.19 0.19 0.19
0.17 0.21 0.22 0.23 0.25 0.26 0.26 0.25 0.27 0.27 0.26 0.25 0.23 0.24 0.24 0.25 0.25 0.25 0.25 0.24 0.24 0.23 0.22 0.22 0.23 0.23 0.23 0.23 0.24 0.23 0.22 0.21 0.20 0.20 0.21 0.20 0.20 0.20 0.20 0.19 0.19 0.19 0.19 0.19
0.18 0.21 0.22 0.23 0.24 0.25 0.25 0.26 0.26 0.27 0.27 0.26 0.25 0.25 0.25 0.24 0.23 0.23 0.22 0.22 0.22 0.22 0.22 0.22 0.23 0.23 0.23 0.23 0.21 0.19 0.18 0.18 0.18 0.19 0.18 0.18 0.18 0.18 0.19 0.20 0.20 0.20 0.20 0.21
0.14 0.19 0.20 0.21 0.24 0.26 0.25 0.25 0.26 0.26 0.26 0.27 0.27 0.26 0.26 0.24 0.24 0.23 0.23 0.23 0.23 0.23 0.23 0.23 0.22 0.21 0.21 0.20 0.18 0.17 0.16 0.16 0.16 0.16 0.16 0.16 0.15 0.15 0.17 0.18 0.19 0.20 0.21 0.22
0.18 0.22 0.22 0.23 0.24 0.25 0.25 0.25 0.26 0.26 0.26 0.25 0.26 0.25 0.24 0.23 0.24 0.25 0.25 0.24 0.23 0.22 0.20 0.20 0.19 0.18 0.17 0.16 0.16 0.15 0.14 0.14 0.15 0.15 0.15 0.14 0.14 0.14 0.13 0.15 0.16 0.17 0.18 0.20
0.20 0.20 0.18 0.20 0.19 0.22 0.22 0.23 0.23 0.23 0.23 0.23 0.23 0.23 0.23 0.22 0.22 0.21 0.20 0.19 0.19 0.19 0.18 0.17 0.16 0.15 0.15 0.15 0.14 0.13 0.13 0.13 0.14 0.13 0.14 0.15 0.14 0.14 0.14 0.13 0.13 0.14 0.17 0.18
0.17 0.19 0.18 0.19 0.19 0.19 0.20 0.20 0.19 0.19 0.19 0.19 0.20 0.19 0.19 0.19 0.18 0.18 0.18 0.17 0.17 0.16 0.15 0.15 0.14 0.13 0.14 0.14 0.13 0.12 0.12 0.12 0.12 0.12 0.12 0.13 0.13 0.12 0.13 0.13 0.13 0.14 0.14 0.17
0.17 0.18 0.18 0.17 0.17 0.18 0.18 0.18 0.17 0.17 0.17 0.17 0.17 0.17 0.17 0.16 0.16 0.15 0.14 0.14 0.13 0.13 0.12 0.12 0.11 0.11 0.11 0.11 0.10 0.11 0.10 0.11 0.12 0.11 0.11 0.11 0.11 0.11 0.12 0.11 0.11 0.11 0.12 0.14
0.16 0.16 0.17 0.17 0.17 0.17 0.17 0.17 0.17 0.16 0.15 0.15 0.14 0.14 0.13 0.12 0.12 0.11 0.11 0.10 0.10 0.09 0.09 0.09 0.08 0.09 0.09 0.08 0.08 0.09 0.09 0.09 0.10 0.10 0.09 0.10 0.10 0.11 0.10 0.10 0.09 0.10 0.11 0.13
0.17 0.17 0.17 0.16 0.15 0.15 0.14 0.14 0.13 0.13 0.12 0.12 0.11 0.11 0.10 0.09 0.09 0.09 0.09 0.09 0.08 0.08 0.08 0.08 0.09 0.09 0.09 0.09 0.09 0.09 0.09 0.09 0.09 0.09 0.09 0.09 0.09 0.10 0.09 0.09 0.09 0.09 0.10 0.11
0.15 0.14 0.14 0.14 0.13 0.13 0.12 0.12 0.12 0.12 0.11 0.11 0.10 0.10 0.09 0.09 0.09 0.08 0.08 0.08 0.07 0.07 0.07 0.09 0.09 0.09 0.09 0.08 0.09 0.09 0.08 0.09 0.09 0.09 0.09 0.09 0.09 0.08 0.07 0.07 0.07 0.07 0.08 0.09
0.13 0.13 0.13 0.13 0.13 0.12 0.12 0.12 0.12 0.11 0.10 0.10 0.09 0.08 0.07 0.07 0.07 0.07 0.07 0.06 0.06 0.06 0.07 0.07 0.07 0.07 0.07 0.08 0.09 0.09 0.09 0.08 0.08 0.08 0.09 0.09 0.09 0.08 0.08 0.07 0.07 0.06 0.06 0.07
0.12 0.12 0.11 0.11 0.10 0.11 0.10 0.10 0.10 0.09 0.09 0.08 0.07 0.07 0.06 0.06 0.06 0.06 0.05 0.05 0.06 0.07 0.08 0.08 0.09 0.08 0.08 0.09 0.09 0.08 0.08 0.08 0.08 0.09 0.09 0.09 0.08 0.08 0.07 0.07 0.07 0.07 0.06 0.06
0.10 0.10 0.09 0.09 0.09 0.09 0.09 0.09 0.09 0.09 0.08 0.07 0.07 0.06 0.05 0.05 0.05 0.05 0.06 0.06 0.06 0.07 0.08 0.08 0.08 0.08 0.08 0.10 0.09 0.08 0.08 0.09 0.09 0.10 0.09 0.09 0.08 0.08 0.08 0.07 0.07 0.06 0.06 0.06
0.09 0.09 0.08 0.07 0.07 0.07 0.07 0.07 0.07 0.07 0.07 0.06 0.06 0.06 0.05 0.05 0.06 0.05 0.05 0.06 0.07 0.07 0.07 0.08 0.08 0.09 0.10 0.11 0.10 0.10 0.10 0.10 0.10 0.10 0.09 0.08 0.08 0.08 0.08 0.07 0.07 0.06 0.07 0.07
0.08 0.07 0.06 0.07 0.07 0.06 0.06 0.06 0.07 0.07 0.07 0.07 0.07 0.07 0.06 0.06 0.06 0.07 0.07 0.08 0.08 0.09 0.09 0.09 0.09 0.10 0.11 0.11 0.11 0.10 0.10 0.10 0.10 0.10 0.09 0.09 0.09 0.09 0.08 0.07 0.07 0.07 0.07 0.07
0.06 0.07 0.07 0.07 0.06 0.06 0.06 0.07 0.07 0.07 0.07 0.07 0.07 0.08 0.08 0.08 0.07 0.08 0.08 0.08 0.09 0.09 0.09 0.09 0.09 0.10 0.10 0.10 0.09 0.09 0.09 0.09 0.09 0.09 0.09 0.09 0.08 0.08 0.08 0.07 0.07 0.07 0.07 0.07
0.07 0.07 0.07 0.08 0.08 0.08 0.08 0.08 0.07 0.07 0.07 0.07 0.08 0.08 0.08 0.08 0.08 0.09 0.09 0.09 0.09 0.09 0.09 0.09 0.09 0.09 0.09 0.09 0.08 0.09 0.09 0.09 0.09 0.09 0.09 0.09 0.09 0.08 0.08 0.08 0.07 0.07 0.07 0.07
0.08 0.08 0.08 0.08 0.09 0.09 0.09 0.09 0.09 0.09 0.09 0.09 0.09 0.09 0.09 0.09 0.09 0.10 0.10 0.10 0.10 0.10 0.10 0.10 0.10 0.10 0.10 0.09 0.10 0.10 0.10 0.10 0.10 0.10 0.09 0.09 0.09 0.09 0.09 0.08 0.08 0.08 0.07 0.07
Wind_Speed
19 18 18 19 19 23 27 28 23 24 26 24 25 23 23 22 21 21 21 21 22 21 21 21 21 21 20 20 20 20 20 21 21 22 23 24 24 25 25 26 27 28 29 30
20 20 20 22 22 23 27 25 28 24 25 22 21 22 24 25 24 24 24 24 23 22 22 21 21 21 20 20 20 21 21 22 23 23 24 24 25 26 27 28 29 31 32 33
22 20 22 25 26 26 25 26 27 29 29 25 25 25 28 28 27 26 26 25 24 23 22 21 21 21 21 21 22 22 22 22 23 24 25 26 28 29 30 31 33 34 35 36
19 19 22 23 21 23 27 26 28 26 24 25 25 24 25 26 26 26 26 25 24 23 23 22 22 22 23 23 23 23 24 24 25 26 28 29 30 31 33 34 36 37 38 40
20 21 24 23 21 19 19 24 27 27 24 22 21 20 22 24 25 25 26 25 24 24 24 23 23 24 24 24 25 25 26 27 28 30 31 32 33 35 36 37 39 40 41 42
19 20 21 19 18 19 19 22 18 18 20 22 23 23 22 23 23 24 24 25 25 25 24 25 25 26 26 26 27 27 29 30 32 33 35 36 37 39 40 41 42 42 43 43
20 21 22 20 18 17 17 20 18 17 19 20 20 20 20 21 22 24 25 25 25 25 26 27 27 27 27 28 29 31 32 34 35 37 38 39 40 41 41 42 43 43 44 44
19 20 24 20 19 20 19 17 16 16 17 17 18 17 18 20 22 24 25 26 27 27 27 28 28 28 29 30 32 34 35 36 38 39 40 41 42 42 43 44 44 44 45 45
18 18 18 17 17 19 19 17 17 16 17 18 18 18 19 20 22 24 25 26 27 27 27 28 29 30 32 34 35 36 38 39 40 41 41 42 43 43 44 44 44 44 45 45
18 18 17 18 17 17 17 18 18 18 19 20 20 21 21 22 23 24 25 26 27 27 29 30 31 32 34 36 37 38 39 40 41 41 42 42 43 43 44 44 45 45 45 45
20 20 20 20 20 20 20 20 20 20 21 22 22 22 23 23 24 25 26 27 28 29 31 32 33 35 36 37 38 39 40 41 41 42 42 43 43 43 44 44 44 44 44 44
21 23 24 22 22 22 22 22 22 22 21 22 23 23 24 25 26 27 28 29 30 31 32 34 35 36 37 38 39 40 41 41 42 42 43 43 43 43 43 43 43 43 43 42
24 24 22 23 23 23 23 23 23 23 23 23 23 24 25 26 28 28 30 31 32 33 35 36 37 38 39 40 40 41 41 42 42 42 43 42 42 42 43 42 42 42 43 43
24 24 24 24 23 23 22 22 22 23 24 24 25 26 26 28 29 30 31 33 34 35 36 37 38 40 40 41 41 41 42 42 42 42 42 42 43 43 44 45 45 45 46 47
23 23 22 22 22 22 23 23 23 24 25 25 26 27 28 29 30 32 33 34 36 36 38 38 39 40 41 41 41 41 41 42 42 43 43 44 45 46 46 47 47 48 48 48
20 20 20 20 21 22 22 23 23 24 25 26 27 28 29 30 31 33 34 35 35 37 38 39 40 40 41 41 42 42 43 44 45 45 46 46 47 47 47 48 48 48 48 47
20 20 21 21 22 23 23 24 24 25 26 26 28 29 29 30 32 33 34 35 36 37 39 39 40 41 42 43 43 44 45 46 46 46 47 47 47 46 46 46 46 45 44 44
17 18 18 19 20 21 22 23 23 24 25 26 27 28 29 31 32 34 35 37 38 39 41 42 42 43 44 45 46 46 46 46 46 46 45 44 43 42 41 40 39 39 38 37
17 18 19 19 21 22 23 24 25 26 27 28 30 32 33 35 36 38 39 40 41 43 43 43 44 44 45 45 45 44 44 43 42 41 40 39 38 37 36 35 34 34 33 33
20 21 22 23 25 26 27 28 29 31 32 33 34 36 37 38 39 40 41 41 42 43 42 42 42 41 41 41 41 40 39 39 38 36 35 35 34 33 33 32 32 31 31 31
23 24 26 27 28 30 31 32 32 34 35 35 36 37 37 38 39 39 38 38 38 37 37 37 36 36 36 36 35 35 34 33 32 31 32 32 32 31 30 30 29 29 29 28
24 26 27 28 29 30 31 32 33 34 34 34 34 34 34 34 34 34 34 34 33 33 32 31 31 31 31 30 29 29 29 29 29 29 29 29 29 28 28 28 28 27 26 25
24 25 26 27 27 28 28 28 28 29 29 29 28 28 28 29 29 28 28 28 28 27 27 26 27 27 28 27 27 27 28 27 27 26 26 26 26 26 26 25 25 25 24 24
23 23 23 23 23 23 23 23 22 22 22 22 23 23 23 23 24 25 25 26 26 26 26 25 26 26 26 26 26 26 26 25 25 25 25 25 25 24 24 24 24 23 23 23
20 20 20 20 20 20 20 20 20 20 21 21 22 22 23 23 24 24 24 25 26 26 26 26 26 26 25 25 24 24 25 25 25 25 25 25 24 24 24 24 23 23 22 22
18 17 17 18 19 20 21 22 22 23 23 23 24 24 25 25 26 26 26 26 26 26 26 26 25 25 25 25 25 25 24 24 24 24 24 25 25 25 25 24 23 23 22 22
15 16 17 19 20 22 23 24 24 25 26 26 27 27 27 27 27 27 27 26 26 26 25 25 25 25 25 25 25 25 25 25 25 25 25 25 24 24 24 24 24 23 23 22
Wind_Direction
243 245 247 248 241 232 234 240 242 253 248 252 243 240 235 233 229 225 226 228 228 227 227 229 230 230 231 233 236 238 240 244 249 252 255 258 259 261 262 264 265 266 267 269
248 246 250 252 247 243 245 250 254 254 258 255 250 241 237 231 228 229 230 230 229 228 227 227 228 230 232 235 239 243 247 251 254 256 258 260 262 264 266 267 268 269 270 271
251 253 254 259 245 243 249 250 249 250 255 251 247 240 237 234 233 230 228 227 225 225 226 227 230 232 236 240 244 248 251 253 256 259 262 264 266 268 269 271 272 272 273 273
246 250 254 257 257 256 253 255 251 258 258 251 246 245 239 236 229 226 223 222 224 225 228 232 236 239 243 245 248 251 253 257 261 264 266 268 270 272 273 274 274 275 275 275
245 248 260 260 256 252 251 262 251 249 249 245 238 241 243 233 228 224 222 225 227 231 233 236 241 245 247 249 251 255 259 262 265 268 270 271 273 274 275 276 277 277 277 278
245 248 251 258 259 259 256 261 266 245 239 232 232 239 238 228 224 225 226 227 230 234 238 242 248 250 250 253 256 260 263 266 269 271 273 274 276 277 277 278 278 279 279 279
249 254 260 261 257 253 252 259 264 250 237 229 237 243 227 225 226 227 229 232 235 239 243 249 252 252 254 257 262 265 268 270 272 274 275 276 277 277 278 279 279 279 279 279
249 253 259 265 256 253 259 262 255 245 238 234 233 234 232 230 230 232 234 238 241 244 249 252 253 255 258 262 266 269 271 273 275 276 277 278 278 278 279 279 279 279 279 280
252 256 259 263 256 257 257 254 253 245 239 235 236 237 237 237 236 237 239 242 245 246 250 254 257 260 263 267 270 272 274 275 277 278 278 279 279 279 279 279 279 279 280 280
253 257 257 259 260 262 260 258 255 249 246 245 244 244 242 241 241 242 243 245 248 251 255 258 262 265 267 270 273 274 276 277 278 278 279 279 280 280 280 280 280 280 280 280
258 259 259 261 262 261 262 260 258 257 253 251 249 248 246 245 246 247 249 251 253 256 259 263 265 268 271 273 275 276 277 278 279 279 280 280 280 280 280 280 280 280 280 280
262 265 262 264 264 261 261 261 261 259 259 258 254 251 249 250 251 253 254 257 259 262 264 267 269 271 273 275 276 277 278 279 280 280 280 281 281 281 281 280 280 280 279 279
264 266 263 262 264 262 260 260 260 260 260 257 256 254 255 255 257 258 260 262 264 266 268 270 271 273 275 276 277 279 279 280 280 281 281 281 281 281 280 280 280 279 279 279
267 265 263 267 262 262 261 260 260 260 261 260 259 260 259 261 261 263 264 266 268 269 270 272 274 275 276 277 278 279 279 280 280 281 281 281 281 281 281 280 280 280 280 279
270 268 264 261 261 262 261 261 261 262 262 263 263 263 263 263 265 266 267 269 271 271 272 274 275 276 276 277 278 279 280 280 280 281 281 281 281 281 281 281 281 281 281 280
267 265 264 264 264 265 265 265 264 265 265 265 265 266 266 267 268 269 271 272 273 273 274 275 276 276 277 278 279 279 280 281 281 281 282 282 282 282 281 282 282 281 281 280
265 267 267 266 266 267 268 268 266 266 267 267 267 268 269 270 271 272 273 274 275 275 276 276 277 278 278 279 279 280 281 281 282 282 282 282 282 282 282 282 282 281 281 279
269 268 268 267 266 267 269 270 269 269 270 269 270 271 272 273 274 275 276 277 278 278 278 278 278 279 280 280 280 280 281 281 282 282 282 282 281 282 282 282 282 282 281 280
272 272 273 273 273 272 272 272 272 272 272 273 274 275 275 276 276 277 278 279 279 280 281 280 279 280 280 281 281 280 281 281 281 281 281 280 280 281 281 282 281 281 281 280
275 276 276 277 277 276 276 275 275 276 276 276 277 278 278 278 279 279 280 280 280 281 281 280 280 280 281 280 281 280 280 280 280 279 279 278 278 279 280 281 281 281 280 278
280 280 280 280 280 279 278 278 278 278 278 278 278 279 279 280 280 281 281 281 282 282 281 281 281 281 281 281 281 281 280 279 278 277 278 278 278 278 278 279 280 281 280 278
284 284 284 284 283 283 282 281 280 280 279 279 279 280 280 281 281 282 281 281 283 283 282 282 282 282 282 281 281 281 280 278 278 278 279 278 277 277 277 278 279 280 278 276
289 290 290 289 288 287 287 285 283 282 281 280 280 281 281 283 283 283 284 284 284 283 283 283 284 284 283 283 281 281 280 279 279 278 278 278 277 276 277 278 279 278 277 275
295 295 294 294 294 294 292 291 288 286 284 284 284 285 285 286 287 286 286 285 285 284 284 284 285 285 285 284 282 281 280 280 279 277 277 277 277 277 276 278 278 277 276 274
297 297 297 297 297 296 295 294 292 290 288 287 286 287 288 288 287 290 289 288 286 285 284 284 285 285 285 285 284 283 281 280 279 277 277 277 276 276 276 277 276 275 274 273
298 299 301 301 301 300 297 295 293 290 289 288 288 288 289 289 289 289 289 289 288 286 285 285 284 284 284 283 283 283 282 281 280 279 277 277 276 275 274 273 273 273 272 271
297 301 305 308 307 305 302 298 295 293 290 288 288 289 289 289 289 288 288 288 287 286 286 285 285 284 284 284 284 283 282 281 279 279 278 277 276 275 273 272 271 270 269 268